FENGYUN 1C DEB

Satellite information

Favourite Embed

Satellite Type and Status

DEBRISIN ORBIT

Key statistics

Satellite FENGYUN 1C DEB at a glance.

Uptime

9658

Days in orbit

Revolutions

≈ 14.1

Per day

Orbit

SSO

Sun Synchronous Orbit

Inclination

98.9

Latest

Satellite identification and parameters

Extended collection of information and parameters for FENGYUN 1C DEB.

Object identification

Identified? True

Debris? True

Object name: FENGYUN 1C DEB

International designator: 1999-025YH

Object number (NORAD): 30272

Object ID (CCSDS): 30272

Country: PEOPLES REPUBLIC OF CHINA (PRC)

Current information (Y/N): Y

RCS size: SMALL

Orbital parameters

Period: 101.818 minutes

Inclination: 98.9052 deg

SMA: 7222.852 km

Apoapsis: 880.593 km

Periapsis: 808.84 km

RAAN: 358.7944 deg

Eccentricy: 0.00496709

Argument of periapsis: 258.8914 deg

Mean anomaly: 100.6671 deg

Mean motion: 14.14293975 rev/day

Mean motion (dot): 0.00003616 rev/day2

B* drag term: 0.0018933334 1/REarth

Two-line elements (TLE)

Creation date: Oct. 18, 2025, 2:17 a.m.

Reference frame: TEME

Reference center: EARTH

Epoch: Oct. 17, 2025, 10:09 p.m. UTC

TLE line 0: 0 FENGYUN 1C DEB

TLE line 1: 1 30272U 99025YH 25290.92337718 .00003616 00000-0 18933-2 0 9999

TLE line 2: 2 30272 98.9052 358.7944 0049671 258.8914 100.6671 14.14293975960677

Live tracking on map

Real-time ground track for satellite FENGYUN 1C DEB.

In-orbit conjunctions

A list of the most updated potential collisions computed for object FENGYUN 1C DEB.

Target Orbit TCA Probability of collision Miss distance Type
CZ-6A DEB SSO 2025-10-11 13:48:50 0.0001446097 95.0 (m) DEBRIS
CZ-6A DEB LEO 2025-04-07 23:34:11 0.0001331241 14.0 (m) DEBRIS
FENGYUN 1C DEB SSO 2025-01-07 04:27:57 0.0001016182 89.0 (m) DEBRIS

Associated space launch

Chinese polar orbiting meteorological satellite

FENGYUN 1C DEB was lifted into orbit during the mission ‘Long March 4B | Feng Yun 1C’, on board a Long March 4B space rocket.

The launch took place on May 10, 1999, 1:33 a.m. from Launch Complex 7.

For more information about the launch, click the button.

Launch to space Long March 4B | Feng Yun 1C
Long March 4B | Feng Yun 1C

Agency: N/A

Status: Launch Successful

Launch date: May 10, 1999, 1:33 a.m. UTC

Rocket: Long March 4B

Launch pad: Launch Complex 7

Location: Taiyuan Satellite Launch Center, People's Republic of China

...

Latest news about this satellite

There are no fresh news available about this satellite. Check back as we update our databases every day.


Newsletter sign-up

Weekly statistics, charts and insights to help you stay on top of the space industry.